Location: Prairie View Elementary School
(39.8322°N, 99.5698°W)
Time: 01:38:09
(UTC+00:00)

Cosmos 1371 Rocket - Visible Passes

Search period start: 03 April 2020 00:00
Search period end: 13 April 2020 00:00
Orbit: 753 x 790 km, 74.0° (Epoch: 01 April)

Date Brightness Start Highest point End Pass type
(mag) Time Alt. Az. Time Alt. Az. Time Alt. Az.
04 Apr 7.5 11:29:51 10° ESE 11:31:09 11° E 11:32:27 10° ENE visible
07 Apr 6.8 11:21:11 10° SE 11:25:04 21° E 11:28:58 10° NE visible
08 Apr 7.1 10:47:36 10° ESE 10:49:27 12° E 10:51:18 10° ENE visible
10 Apr 5.7 11:14:13 10° SSE 11:19:06 37° E 11:24:00 10° NE visible
11 Apr 6.5 10:39:21 10° SSE 10:43:23 22° E 10:47:26 10° NE visible
12 Apr 6.9 10:05:30 10° ESE 10:07:45 13° E 10:10:01 10° ENE visible
